FW2498 Weather Reports


Display with metric or nautical units.
time (UTC)temp
F
wind
direction
speed
MPH
gust
MPH
rain 1hr
in
rain 24hr
in
rain mn
in
humidity
%
barometer
mb
20260904000106 81 306 8.0 12.0 0.00 0.22 0.22 31 1006.9
20260903234555 81 326 7.0 9.0 0.00 0.22 0.22 31 1006.8
20260903233054 81 300 8.0 12.0 0.00 0.22 0.22 32 1006.8
20260903231555 81 304 8.0 11.0 0.00 0.22 0.22 32 1006.5
20260903230053 81 311 6.0 13.0 0.00 0.22 0.22 32 1006.3
20260903224551 82 333 11.0 17.0 0.00 0.22 0.22 32 1006.1
20260903223053 82 308 7.0 14.0 0.00 0.22 0.22 33 1006.0
20260903221547 82 287 11.0 15.0 0.00 0.22 0.22 34 1005.9
20260903220047 82 290 10.0 13.0 0.00 0.22 0.22 33 1005.7
20260903214604 83 336 7.0 12.0 0.00 0.22 0.22 35 1005.8
20260903213047 82 281 6.0 14.0 0.00 0.22 0.22 36 1005.8
20260903211539 82 281 4.0 15.0 0.00 0.22 0.22 38 1005.8
20260903210044 81 312 6.0 15.0 0.00 0.22 0.22 39 1005.7
20260903204537 81 308 9.0 12.0 0.00 0.22 0.22 41 1005.8
20260903203035 80 323 5.0 13.0 0.00 0.22 0.22 44 1005.8
20260903201537 80 310 2.0 13.0 0.00 0.22 0.22 46 1005.7
20260903200034 80 331 4.0 20.0 0.00 0.22 0.22 52 1005.7
20260903194530 79 240 6.0 11.0 0.00 0.22 0.22 50 1005.6
20260903193029 78 40 1.0 8.0 0.00 0.22 0.22 55 1005.7
20260903191526 78 128 1.0 6.0 0.00 0.22 0.22 56 1005.7
20260903190024 77 240 2.0 5.0 0.00 0.22 0.22 59 1005.7
20260903184521 76 214 3.0 10.0 0.00 0.22 0.22 61 1005.7
20260903183019 75 263 3.0 10.0 0.00 0.22 0.22 61 1005.9
20260903181515 75 245 8.0 11.0 0.00 0.22 0.22 63 1006.0
20260903180019 75 218 7.0 11.0 0.00 0.22 0.22 62 1006.2
20260903174510 75 183 4.0 10.0 0.00 0.22 0.22 65 1006.1
20260903173005 74 200 5.0 10.0 0.00 0.22 0.22 65 1006.1
20260903171506 73 190 5.0 10.0 0.00 0.22 0.22 67 1006.1
20260903170104 72 214 5.0 11.0 0.00 0.22 0.22 69 1006.1
20260903164555 70 190 8.0 11.0 0.00 0.22 0.22 70 1006.3
20260903163050 69 171 11.0 16.0 0.00 0.22 0.22 72 1006.6
20260903161549 68 195 8.0 12.0 0.00 0.22 0.22 73 1006.6
20260903160047 68 181 11.0 14.0 0.00 0.22 0.22 76 1007.0
20260903154550 66 166 7.0 9.0 0.00 0.22 0.22 77 1007.0
20260903153055 66 112 5.0 9.0 0.00 0.22 0.22 78 1006.7
20260903151541 64 60 2.0 7.0 0.00 0.22 0.22 82 1006.6
20260903150038 64 45 2.0 7.0 0.00 0.22 0.22 82 1006.5
20260903144541 62 19 1.0 4.0 0.00 0.22 0.22 85 1006.7
20260903143045 61 15 0.0 3.0 0.00 0.22 0.22 86 1006.8
20260903141538 61 15 2.0 3.0 0.00 0.22 0.22 88 1006.6
20260903140029 60 11 3.0 5.0 0.00 0.22 0.22 89 1006.5
20260903134527 59 319 3.0 4.0 0.00 0.22 0.22 89 1006.5
20260903133024 58 204 0.0 5.0 0.00 0.22 0.22 89 1006.6
20260903131520 59 34 0.0 6.0 0.00 0.22 0.22 89 1005.9
20260903130017 57 245 0.0 3.0 0.00 0.22 0.22 89 1005.6
20260903124517 58 245 0.0 0.0 0.00 0.22 0.22 89 1005.6
20260903123011 58 245 0.0 2.0 0.00 0.22 0.22 88 1005.5
20260903121509 58 245 0.0 6.0 0.00 0.22 0.22 87 1005.8
20260903120006 59 250 6.0 8.0 0.00 0.22 0.22 85 1005.9
20260903114504 60 318 0.0 6.0 0.00 0.22 0.22 85 1005.6
20260903113003 60 330 1.0 6.0 0.00 0.22 0.22 83 1006.0
20260903111501 60 330 2.0 7.0 0.00 0.22 0.22 85 1005.8
20260903110101 61 9 4.0 10.0 0.00 0.22 0.22 84 1005.7
20260903104622 60 45 6.0 8.0 0.00 0.22 0.22 86 1005.4
20260903103105 60 98 5.0 9.0 0.00 0.22 0.22 87 1005.1
20260903101558 60 110 3.0 7.0 0.00 0.22 0.22 87 1004.6
20260903100057 59 97 7.0 10.0 0.00 0.22 0.22 88 1004.3
20260903094555 60 149 2.0 6.0 0.00 0.22 0.22 87 1004.4
20260903093103 60 123 4.0 7.0 0.00 0.22 0.22 86 1003.8
20260903091553 60 142 0.0 5.0 0.00 0.22 0.22 87 1003.8
20260903090052 61 56 3.0 8.0 0.00 0.22 0.22 87 1003.3
20260903084556 60 54 8.0 12.0 0.01 0.22 0.22 87 1003.2
20260903083056 60 31 15.0 19.0 0.14 0.22 0.22 86 1003.4
20260903081606 62 47 11.0 15.0 0.14 0.22 0.22 82 1003.6
20260903080044 62 354 12.0 18.0 0.15 0.22 0.22 83 1004.5
20260903074546 60 15 13.0 15.0 0.13 0.20 0.20 87 1006.0
20260903073040 60 268 4.0 6.0 0.05 0.08 0.08 87 1006.2
20260903071537 61 48 12.0 15.0 0.08 0.08 0.08 86 1005.4
20260903070036 61 31 11.0 15.0 0.07 0.07 0.07 85 1005.7
20260903064540 61 8 10.0 19.0 0.07 0.07 0.07 82 1006.2
20260903063035 64 259 12.0 21.0 0.02 0.02 0.02 76 1006.5
20260903061527 67 280 19.0 25.0 0.00 0.00 0.00 68 1006.4
20260903060022 73 275 24.0 33.0 0.00 0.00 0.00 54 1006.1
20260903054523 74 250 17.0 33.0 0.00 0.00 0.00 66 1005.3
20260903053023 73 117 19.0 27.0 0.00 0.00 0.00 66 1002.6
20260903051522 73 111 20.0 28.0 0.00 0.00 0.00 67 1002.3
20260903050037 73 111 18.0 25.0 0.00 0.00 0.00 67 1002.2
20260903044519 73 93 16.0 22.0 0.00 0.00 0.00 67 1002.1
20260903043018 73 87 15.0 20.0 0.00 0.00 0.00 67 1002.7
20260903041520 74 95 14.0 24.0 0.00 0.00 0.00 66 1003.2
20260903040015 74 100 15.0 23.0 0.00 0.00 0.00 66 1003.5
20260903034514 74 103 12.0 23.0 0.00 0.00 0.00 65 1003.6
20260903033013 75 87 14.0 23.0 0.00 0.00 0.00 63 1003.5
20260903031513 76 106 16.0 22.0 0.00 0.00 0.00 62 1003.6
20260903030013 77 114 20.0 28.0 0.00 0.00 0.00 61 1003.6
20260903024512 77 102 18.0 25.0 0.00 0.00 0.00 61 1003.7
20260903023019 77 116 19.0 25.0 0.00 0.00 0.00 60 1003.4
20260903021518 78 115 16.0 24.0 0.00 0.00 0.00 58 1003.5
20260903020030 79 101 14.0 21.0 0.00 0.00 0.00 56 1003.5
20260903014510 80 109 16.0 22.0 0.00 0.00 0.00 54 1003.4
20260903013011 81 106 15.0 22.0 0.00 0.00 0.00 53 1003.4
20260903011507 81 119 17.0 25.0 0.00 0.00 0.00 51 1003.6
20260903010009 82 115 18.0 26.0 0.00 0.00 0.00 50 1003.3
20260903004505 82 117 18.0 27.0 0.00 0.00 0.00 49 1003.2
20260903003004 83 118 21.0 28.0 0.00 0.00 0.00 48 1003.3
20260903001504 84 110 21.0 32.0 0.00 0.00 0.00 47 1003.2